Location: Cir�s
(42.8530°N, 0.5179°E)
Time: 11:48:27
(UTC+00:00)

Daily predictions for brighter satellites

Satellite Brightness Start Highest point End
(mag) Time Altitude Azimuth Time Altitude Azimuth Time Altitude Azimuth
Cosmos 724 4.5 17:33:33 10° SSW 17:39:43 88° ESE 17:45:48 10° NNE
Unknown 3.9 17:38:51 10° WSW 17:42:59 71° NW 17:47:07 10° NE
Unknown 3.8 17:38:53 10° WSW 17:43:01 72° NW 17:47:10 10° NE
Cosmos 1758 3.4 17:39:17 10° S 17:43:16 87° WNW 17:47:15 10° N
Unknown 3.9 17:39:41 10° WSW 17:43:49 71° NW 17:47:58 10° NE
CZ-4C R/B 3.0 17:37:18 10° NW 17:44:37 79° NE 17:52:53 10° SE
Cosmos 1486 Rocket 4.1 17:39:32 10° NNW 17:44:53 88° WSW 17:50:13 10° SSE
COSMOS 2406 4.3 17:41:31 10° N 17:46:20 26° NE 17:51:04 10° ESE
Cosmos 2082 Rocket 4.1 17:45:50 10° NNE 17:47:07 11° NE 17:48:24 10° NE
Unknown 3.9 17:43:47 10° WSW 17:47:53 66° NNW 17:52:01 10° NE
Unknown 3.9 17:43:54 10° WSW 17:48:01 66° NNW 17:52:09 10° NE
Unknown 4.0 17:45:41 10° WSW 17:49:47 62° NNW 17:53:55 10° NE
Cosmos 1354 Rocket 4.2 17:45:00 10° N 17:50:07 52° ENE 17:55:13 10° SE
Cosmos 1726 Rocket 3.9 17:47:11 10° SSE 17:51:22 44° E 17:55:32 10° NNE
Unknown 4.1 17:49:01 10° WSW 17:53:06 59° NNW 17:57:13 10° NE
Unknown 4.1 17:49:34 10° WSW 17:53:39 60° NNW 17:57:46 10° NE
ASTEX 1 3.7 17:49:19 10° NNE 17:54:06 47° E 17:58:52 10° SSE
Unknown 4.1 17:50:36 10° WSW 17:54:42 59° NNW 17:58:49 10° NE
Okean-O 3.1 17:51:19 10° S 17:55:43 69° WSW 18:00:09 10° NNW
FengYun 1-2 T 4.3 17:50:16 10° SSE 17:55:48 60° ENE 18:01:20 10° N
CSL-04 Debris 4.5 17:50:47 10° SE 17:55:57 47° ENE 18:01:10 10° N
Unknown 4.1 17:53:49 10° WSW 17:57:54 58° NNW 18:02:01 10° NE
Cosmos 1242 Rocket 3.6 17:55:35 10° NNE 17:58:44 26° ENE 18:01:52 10° SE
Shenzhou-11 Module 2.1 17:56:01 10° WSW 17:58:44 53° SSE 18:00:58 14° E
Cosmos 968 Rocket 3.5 17:55:18 10° NNW 18:00:35 73° ENE 18:05:50 10° SSE
Cosmos 2058 Rocket 3.6 17:57:19 10° SSE 18:01:18 36° E 18:05:18 10° NNE
Unknown 4.2 17:57:16 10° WSW 18:01:20 54° NNW 18:05:25 10° NE
Abrixas rocket 4.4 18:01:31 10° SSE 18:02:08 10° SE 18:02:45 10° ESE
Unknown 4.3 17:58:57 10° WSW 18:03:00 53° NNW 18:07:04 10° NE
Cosmos 2239 Rocket 4.4 17:56:52 10° N 18:03:00 67° E 18:09:06 10° SSE
Cosmos 1939 Rocket 4.0 17:59:56 10° ESE 18:03:02 22° ENE 18:06:11 10° NNE
Ariane Rocket 3.9 18:00:21 10° ESE 18:04:33 27° ENE 18:08:47 10° N
Cosmos 2228 3.0 18:00:15 10° S 18:04:36 66° E 18:08:56 10° NNE
Unknown 4.3 18:00:40 10° WSW 18:04:42 51° NNW 18:08:46 10° NE
Unknown 4.4 18:02:19 10° WSW 18:06:22 50° NNW 18:10:25 10° NE
Cosmos 1821 Rocket 3.9 18:03:15 10° N 18:09:24 84° E 18:15:33 10° S
Lacrosse 5 rocket 1.3 18:05:50 10° NW 18:09:32 57° NE 18:13:02 13° ESE
Unknown 4.4 18:05:39 10° WSW 18:09:40 47° NNW 18:13:41 10° NE
Unknown 4.5 18:07:26 10° WSW 18:11:27 46° NNW 18:15:27 10° NE
Cosmos 1844 Rocket 2.8 18:05:58 10° SSW 18:11:38 84° WNW 18:17:19 10° NNE
Meteor 1-16 Rocket 4.2 18:07:27 10° S 18:12:58 60° E 18:18:21 10° NNE
Cosmos 1992 Rocket 4.1 18:08:13 10° SSW 18:13:27 84° WNW 18:18:42 10° NNE
Meteor 2-10 4.2 18:09:06 10° SSE 18:13:57 45° E 18:18:45 10° NNE
Nadezhda 3 Rocket 4.2 18:08:49 10° S 18:15:05 79° W 18:21:27 10° N
Cosmos 1503 Rocket 4.0 18:10:22 10° NNW 18:15:34 86° WSW 18:20:44 10° SSE
Cosmos 921 Rocket 3.1 18:11:41 10° S 18:16:08 64° ESE 18:20:35 10° NNE
CZ-4 R/B 4.4 18:14:01 10° SSE 18:18:08 87° WSW 18:22:16 10° NNW
Cosmos 1908 3.9 18:15:36 10° SSE 18:19:06 32° E 18:22:37 10° NNE
YAOGAN 6 2.6 18:17:12 10° SSE 18:20:52 88° WSW 18:24:33 10° NNW
COSMO-SKYMED 1 2.8 18:17:20 10° N 18:21:42 73° WNW 18:26:01 10° SSW
CZ-4 R/B 1.5 18:17:40 10° SSE 18:21:48 83° W 18:26:01 10° NNW
Cosmos 1328 3.9 18:19:58 10° N 18:23:51 49° E 18:27:42 10° SSE
Cosmos 1934 Rocket 4.0 18:17:53 10° N 18:24:12 70° E 18:30:32 10° SSE
Cosmos 1535 Rocket 4.4 18:18:08 10° N 18:24:21 71° E 18:30:28 10° SSE
Cosmos 2084 4.0 18:22:49 10° SW 18:27:19 63° NW 18:31:47 10° NNE
Cosmos 2278 Rocket 2.8 18:22:54 10° SSE 18:27:52 32° ESE 18:32:51 10° NE
H-2A R/B 3.6 18:28:31 16° ENE 18:28:43 16° ENE 18:31:54 10° NNE
Cosmos 839 Rocket 4.2 18:23:45 10° NNW 18:29:52 57° NE 18:36:19 12° SE
Cosmos 1844 3.9 18:25:32 10° SSW 18:31:13 75° WNW 18:37:01 10° NNE
USA 116 3.2 18:29:01 10° NNE 18:32:09 84° W 18:35:25 10° SSW
HJ-1C 4.3 18:33:05 29° ENE 18:33:05 29° ENE 18:36:00 10° N
Lacrosse 5 3.5 18:29:54 10° NNW 18:33:44 21° NNE 18:35:56 16° NE
Cosmos 1953 Rocket 4.0 18:30:22 10° NNW 18:34:43 64° W 18:39:00 10° S
ATLAS 5 CENTAUR R/B 3.4 18:38:44 10° WSW 18:42:32 29° NW 18:46:44 10° NNE
Cosmos 292 Rocket 3.6 18:37:48 10° SSW 18:42:32 74° ESE 18:47:17 10° NNE
Unknown 3.8 18:45:07 10° NW 18:47:05 30° N 18:47:05 30° N
CSL-04 Rocket 4.4 18:50:32 10° S 18:55:58 55° W 19:01:23 10° NNW
CZ-2D R/B 3.4 18:54:27 10° S 18:58:16 74° W 19:02:08 10° NNW
NOAA 11 4.1 18:53:31 10° SSE 18:58:58 88° WSW 19:04:26 10° NNW
SL-4 R/B 2.6 18:57:05 10° WNW 19:00:42 44° SW 19:01:46 33° S
Cosmos 1153 Rocket 4.4 18:55:15 10° N 19:01:19 58° E 19:06:14 16° SSE
Cosmos 1726 4.0 19:11:19 10° SW 19:14:35 30° WNW 19:17:52 10° NNW
ARGOS 4.0 19:15:47 33° NE 19:15:47 33° NE 19:19:44 10° N
Cosmos 1833 Rocket 2.7 19:09:19 10° NNW 19:14:52 56° ENE 19:15:36 51° E
Cosmos 1461 4.3 19:19:44 10° NNW 19:22:03 27° N 19:22:03 27° N
ADEOS Rocket 3.5 19:22:10 10° NNE 19:29:48 57° E 19:36:54 10° S
COSMOS 2406 3.9 19:25:21 10° NNW 19:30:58 53° WSW 19:34:55 19° S
Cosmos 2082 Rocket 2.4 19:26:58 10° NNW 19:32:05 52° NE 19:32:05 52° NE
MOS 1 4.3 19:30:30 30° S 19:33:27 79° WSW 19:39:09 10° NNW
SJ-11-01 4.4 19:40:17 74° WNW 19:40:17 74° WNW 19:44:48 10° NNW
Ariane Rocket 4.3 19:38:34 10° SSW 19:43:19 39° W 19:48:06 10° NNW
Lacrosse 5 rocket 3.6 19:45:42 10° W 19:48:23 18° SW 19:48:44 18° SW
SPOT 3 Rocket 3.9 19:49:52 59° NNW 19:49:52 59° NNW 19:54:05 10° NNW
USA 238 DEB 3.5 19:45:43 10° SSW 19:52:24 85° SE 19:53:10 72° NE
USA 238 3.5 19:45:50 10° SSW 19:52:30 84° SE 19:53:11 74° NE
Resurs 01 Rocket 4.3 19:59:19 11° N 19:59:19 11° N 19:59:27 10° N
Cosmos 1459 Rocket 3.9 19:49:54 10° N 19:55:52 83° N 19:55:52 83° N
USA 234 3.6 20:01:10 51° S 20:01:10 51° S 20:06:06 10° SW
H-2A R/B 3.0 20:09:09 44° NNW 20:09:09 44° NNW 20:12:50 10° NNW
Cosmos 1802 Rocket 4.2 20:01:19 10° N 20:06:46 66° N 20:06:46 66° N
Cosmos 2278 Rocket 3.4 20:06:33 10° SW 20:11:49 39° WNW 20:16:57 11° N
Cosmos 2173 Rocket 4.3 20:10:42 10° NNW 20:16:35 63° WNW 20:16:35 63° WNW
Lacrosse 5 3.5 20:12:34 10° NW 20:15:08 29° NNW 20:15:08 29° NNW
NOSS 3-3 (A) 4.5 20:18:44 10° NW 20:25:43 78° NNW 20:25:43 78° NNW
NOSS 3-3 (C) 4.5 20:18:49 10° NW 20:25:48 78° NNW 20:25:48 78° NNW
